This demonstration page uses our WeatherBlox Daily Observations layout. Learn more.

Left ArrowRight Arrow

Hourly Observations for June 11, 2017

Temp ( °F °C ) Dew Point ( °F °C ) Humidity (%) Winds ( mph kmh ) Pressure ( in mb ) Visibility ( mi km ) Precip ( " mm )
12:15 am 00:15 Clear 80 26.6 65 18.6 62 62 S 21 33 29.5 999 10 16.0934 0 0
12:35 am 00:35 Clear 78 25.8 65 18.6 65 65 S 18 30 29.5 999 10 16.0934 0 0
12:55 am 00:55 Clear 78 25.5 65 18.5 65 65 S 18 30 29.5 999 10 16.0934 0 0
1:15 am 01:15 Clear 78 25.3 65 18.3 65 65 S 17 28 29.5 999 10 16.0934 0 0
1:35 am 01:35 Clear 77 25 65 18.2 66 66 S 20 31 29.5 999 10 16.0934 0 0
1:55 am 01:55 Clear 76 24.7 65 18.1 67 67 S 21 33 29.5 999 10 16.0934 0 0
2:15 am 02:15 Clear 76 24.4 65 18.2 68 68 S 21 33 29.47 998 10 16.0934 0 0
2:35 am 02:35 Clear 75 24.1 65 18.2 70 70 S 24 39 29.47 998 10 16.0934 0 0
2:55 am 02:55 Clear 75 23.7 65 18.3 72 72 S 22 35 29.47 998 10 16.0934 0 0
3:15 am 03:15 Clear 74 23.6 65 18.5 73 73 S 23 37 29.47 998 10 16.0934 0 0
3:35 am 03:35 Clear 74 23.4 65 18.5 74 74 S 21 33 29.47 998 10 16.0934 0 0
3:55 am 03:55 Clear 74 23.1 65 18.5 75 75 S 22 35 29.47 998 10 16.0934 0 0
4:15 am 04:15 Clear 73 23 65 18.5 76 76 S 15 24 29.47 998 10 16.0934 0 0
4:35 am 04:35 Clear 73 22.8 65 18.5 77 77 S 17 28 29.47 998 10 16.0934 0 0
4:55 am 04:55 Clear 73 22.7 65 18.5 77 77 S 20 31 29.5 999 10 16.0934 0 0
5:15 am 05:15 Clear 73 22.6 65 18.5 78 78 S 15 24 29.5 999 10 16.0934 0 0
5:35 am 05:35 Clear 72 22.3 65 18.5 79 79 S 15 24 29.5 999 10 16.0934 0 0
5:55 am 05:55 Clear 72 22.2 65 18.3 79 79 S 18 30 29.5 999 10 16.0934 0 0
6:15 am 06:15 Sunny 72 22 65 18.5 81 81 S 14 22 29.5 999 10 16.0934 0 0
6:35 am 06:35 Sunny 72 22 65 18.5 81 81 S 20 31 29.47 998 10 16.0934 0 0
6:55 am 06:55 Sunny 72 22.1 66 18.7 81 81 S 12 19 29.5 999 10 16.0934 0 0
7:15 am 07:15 Sunny 72 22.3 65 18.5 79 79 S 20 31 29.47 998 10 16.0934 0 0
7:35 am 07:35 Sunny 73 22.8 65 18.5 77 77 S 21 33 29.47 998 10 16.0934 0 0
7:55 am 07:55 Sunny 74 23.2 65 18.5 75 75 S 21 33 29.47 998 10 16.0934 0 0
8:15 am 08:15 Sunny 75 23.7 65 18.3 72 72 SSW 23 37 29.47 998 10 16.0934 0 0
8:35 am 08:35 Sunny 76 24.2 65 18.4 70 70 S 24 39 29.47 998 10 16.0934 0 0
8:55 am 08:55 Sunny 77 25 65 18.3 66 66 SSW 23 37 29.47 998 10 16.0934 0 0
9:15 am 09:15 Sunny 78 25.5 64 18 63 63 SSW 23 37 29.47 998 10 16.0934 0 0
9:35 am 09:35 Sunny 79 26.3 65 18.1 61 61 SSW 18 30 29.5 999 10 16.0934 0 0
9:55 am 09:55 Sunny 81 27 64 17.9 58 58 SSW 21 33 29.47 998 10 16.0934 0 0
10:15 am 10:15 Sunny 82 27.9 64 18 55 55 SW 18 30 29.47 998 10 16.0934 0 0
10:35 am 10:35 Sunny 83 28.2 63 17.4 52 52 SSW 15 24 29.47 998 10 16.0934 0 0
10:55 am 10:55 Sunny 84 28.9 63 17.2 49 49 SSW 16 26 29.47 998 10 16.0934 0 0
11:15 am 11:15 Sunny 86 29.9 63 17.2 46 46 SSW 16 26 29.47 998 10 16.0934 0 0
11:35 am 11:35 Sunny 86 30.1 62 16.4 44 44 SW 14 22 29.47 998 10 16.0934 0 0
11:55 am 11:55 Sunny 87 30.7 62 16.5 42 42 SSW 14 22 29.44 997 10 16.0934 0 0
12:15 pm 12:15 Sunny 89 31.4 62 16.6 41 41 SSW 12 19 29.44 997 10 16.0934 0 0
12:35 pm 12:35 Sunny 88 31 61 15.9 40 40 SSW 9 15 29.47 998 10 16.0934 0 0
12:55 pm 12:55 Sunny 89 31.9 60 15.4 37 37 SSW 8 13 29.47 998 10 16.0934 0 0
1:15 pm 13:15 Sunny 90 32.3 60 15.6 36 36 SSW 12 19 29.47 998 10 16.0934 0 0
1:35 pm 13:35 Sunny 90 32.4 60 15.6 36 36 SSW 8 13 29.47 998 10 16.0934 0 0
1:55 pm 13:55 Sunny 91 32.7 60 15.7 36 36 SSW 10 17 29.47 998 10 16.0934 0 0
2:15 pm 14:15 Sunny 91 33 62 16.4 37 37 SSE 10 17 29.47 998 10 16.0934 0 0
2:35 pm 14:35 Sunny 91 33 61 16 36 36 S 10 17 29.47 998 10 16.0934 0 0
2:55 pm 14:55 Sunny 92 33.1 60 15.5 35 35 S 12 19 29.47 998 10 16.0934 0 0
3:15 pm 15:15 Sunny 93 33.9 61 16 34 34 S 8 13 29.47 998 10 16.0934 0 0
3:35 pm 15:35 Sunny 92 33.5 61 16.3 36 36 S 15 24 29.47 998 10 16.0934 0 0
3:55 pm 15:55 Sunny 93 34.1 61 16 34 34 SSE 9 15 29.5 999 10 16.0934 0 0
4:15 pm 16:15 Sunny 94 34.3 60 15.7 33 33 SW 8 13 29.5 999 10 16.0934 0 0
4:35 pm 16:35 Sunny 94 34.4 62 16.5 34 34 SSE 12 19 29.5 999 10 16.0934 0 0
4:55 pm 16:55 Sunny 94 34.4 62 16.6 35 35 SSE 14 22 29.47 998 10 16.0934 0 0
5:15 pm 17:15 Sunny 93 34 62 16.9 36 36 S 12 19 29.47 998 10 16.0934 0 0
5:35 pm 17:35 Sunny 93 34 63 17 36 36 S 10 17 29.47 998 10 16.0934 0 0
5:55 pm 17:55 Sunny 94 34.4 62 16.4 34 34 S 13 20 29.47 998 10 16.0934 0 0
6:15 pm 18:15 Sunny 94 34.5 62 16.4 34 34 SSE 10 17 29.47 998 10 16.0934 0 0
6:35 pm 18:35 Sunny 93 33.8 60 15.4 33 33 S 8 13 29.5 999 10 16.0934 0 0
6:55 pm 18:55 Sunny 92 33.5 62 16.7 37 37 SSE 8 13 29.5 999 10 16.0934 0 0
7:15 pm 19:15 Sunny 92 33.1 63 17 38 38 SSE 9 15 29.5 999 10 16.0934 0 0
7:35 pm 19:35 Sunny 91 33 64 17.9 41 41 SE 7 11 29.5 999 10 16.0934 0 0
7:55 pm 19:55 Sunny 91 32.5 65 18.2 43 43 SE 9 15 29.5 999 10 16.0934 0 0
8:15 pm 20:15 Sunny 89 31.7 66 18.7 46 46 ESE 9 15 29.5 999 10 16.0934 0 0
8:35 pm 20:35 Partly Cloudy 89 31.5 64 18 45 45 ESE 8 13 29.5 999 10 16.0934 0 0
8:55 pm 20:55 Sunny 87 30.6 65 18.5 48 48 SE 9 15 29.53 1000 10 16.0934 0 0
9:15 pm 21:15 Clear 85 29.6 66 19 53 53 SSE 10 17 29.53 1000 10 16.0934 0 0
9:35 pm 21:35 Clear 85 29.2 66 19.1 55 55 SSE 13 20 29.56 1001 10 16.0934 0 0
9:55 pm 21:55 Clear 83 28.6 66 19.1 56 56 SSE 12 19 29.56 1001 10 16.0934 0 0
10:15 pm 22:15 Clear 83 28.1 66 19 58 58 SSE 13 20 29.56 1001 10 16.0934 0 0
10:35 pm 22:35 Clear 82 27.8 66 19.1 59 59 SSE 10 17 29.62 1003 10 16.0934 0 0
10:55 pm 22:55 Clear 82 27.5 66 19 60 60 SSE 14 22 29.62 1003 10 16.0934 0 0
11:15 pm 23:15 Clear 82 27.6 66 19 59 59 SSE 13 20 29.62 1003 10 16.0934 0 0
11:35 pm 23:35 Clear 81 27.1 66 18.9 61 61 SSE 12 19 29.62 1003 10 16.0934 0 0
11:55 pm 23:55 Clear 80 26.7 66 18.7 62 62 SSE 10 17 29.65 1004 10 16.0934 0 0

Powered by AerisWeather